Time,TemperatureF,DewpointF,PressureIn,WindDirection,WindDirectionDegrees,WindSpeedMPH,WindSpeedGustMPH,Humidity,HourlyPrecipIn,Conditions,Clouds,dailyrainin,SoftwareType,DateUTC
2013-03-13 00:00:00,47.7,45.5,30.13,NNW,337,0.0,0.0,92,0.00,,,0.00,Wunderground v.1.15,2013-03-13 07:00:00,
2013-03-13 00:09:00,47.6,45.7,30.13,NNW,337,0.0,0.0,93,0.00,,,0.00,Wunderground v.1.15,2013-03-13 07:09:00,
2013-03-13 00:15:00,47.4,45.2,30.13,NNW,337,0.0,0.0,92,0.00,,,0.00,Wunderground v.1.15,2013-03-13 07:15:00,
2013-03-13 00:25:00,47.0,44.8,30.14,NNW,337,0.0,0.0,92,0.00,,,0.00,Wunderground v.1.15,2013-03-13 07:25:00,
2013-03-13 00:34:00,46.7,44.8,30.13,NNW,337,0.0,0.0,93,0.00,,,0.00,Wunderground v.1.15,2013-03-13 07:34:00,
2013-03-13 00:40:00,46.7,44.8,30.13,NNW,337,0.0,0.0,93,0.00,,,0.00,Wunderground v.1.15,2013-03-13 07:40:00,
2013-03-13 00:50:00,46.5,44.6,30.14,NNW,337,0.0,0.0,93,0.00,,,0.00,Wunderground v.1.15,2013-03-13 07:50:00,
2013-03-13 01:00:00,46.4,44.5,30.13,NNW,337,0.0,0.0,93,0.00,,,0.00,Wunderground v.1.15,2013-03-13 08:00:00,
2013-03-13 01:10:00,46.2,44.3,30.14,NNW,337,0.0,0.0,93,0.00,,,0.00,Wunderground v.1.15,2013-03-13 08:10:00,
2013-03-13 01:20:00,45.9,44.0,30.14,NNW,337,0.0,0.0,93,0.00,,,0.00,Wunderground v.1.15,2013-03-13 08:20:00,
2013-03-13 01:30:00,45.6,43.7,30.13,NNW,337,0.0,0.0,93,0.00,,,0.00,Wunderground v.1.15,2013-03-13 08:30:00,
2013-03-13 01:40:00,45.5,43.6,30.13,NNW,337,0.0,0.0,93,0.00,,,0.00,Wunderground v.1.15,2013-03-13 08:40:00,
2013-03-13 01:49:00,45.2,43.3,30.13,NNW,337,0.0,0.0,93,0.00,,,0.00,Wunderground v.1.15,2013-03-13 08:49:00,
2013-03-13 01:55:00,45.1,43.2,30.13,NNW,337,0.0,0.0,93,0.00,,,0.00,Wunderground v.1.15,2013-03-13 08:55:00,
2013-03-13 02:00:00,44.9,43.0,30.14,NNW,337,0.0,0.0,93,0.00,,,0.00,Wunderground v.1.15,2013-03-13 09:00:00,
2013-03-13 02:10:00,44.7,43.1,30.14,NNW,337,0.0,0.0,94,0.00,,,0.00,Wunderground v.1.15,2013-03-13 09:10:00,
2013-03-13 02:20:00,44.4,42.5,30.14,NNW,337,0.0,0.0,93,0.00,,,0.00,Wunderground v.1.15,2013-03-13 09:20:00,
2013-03-13 02:29:00,44.4,42.8,30.13,NNW,337,0.0,0.0,94,0.00,,,0.00,Wunderground v.1.15,2013-03-13 09:29:00,
2013-03-13 02:35:00,44.2,42.6,30.13,NNW,337,0.0,0.0,94,0.00,,,0.00,Wunderground v.1.15,2013-03-13 09:35:00,
2013-03-13 02:45:00,44.0,42.4,30.13,NNW,337,0.0,0.0,94,0.00,,,0.00,Wunderground v.1.15,2013-03-13 09:45:00,
2013-03-13 02:54:00,44.1,42.5,30.13,NNW,337,0.0,0.0,94,0.00,,,0.00,Wunderground v.1.15,2013-03-13 09:54:00,
2013-03-13 03:00:00,44.1,42.5,30.13,NNW,337,0.0,0.0,94,0.00,,,0.00,Wunderground v.1.15,2013-03-13 10:00:00,
2013-03-13 03:10:00,44.0,42.4,30.13,NNW,337,0.0,0.0,94,0.00,,,0.00,Wunderground v.1.15,2013-03-13 10:10:00,
2013-03-13 03:20:00,43.7,42.1,30.13,NNW,337,0.0,0.0,94,0.00,,,0.00,Wunderground v.1.15,2013-03-13 10:20:00,
2013-03-13 03:29:00,43.5,41.9,30.13,NNW,337,0.0,0.0,94,0.00,,,0.00,Wunderground v.1.15,2013-03-13 10:29:00,
2013-03-13 03:35:00,43.3,41.7,30.13,NNW,337,0.0,0.0,94,0.00,,,0.00,Wunderground v.1.15,2013-03-13 10:35:00,
2013-03-13 03:45:00,43.3,41.7,30.13,NNW,337,0.0,0.0,94,0.00,,,0.00,Wunderground v.1.15,2013-03-13 10:45:00,
2013-03-13 03:54:00,43.4,42.1,30.13,NNW,337,0.0,0.0,95,0.00,,,0.00,Wunderground v.1.15,2013-03-13 10:54:00,
2013-03-13 04:00:00,43.6,42.3,30.13,NNW,337,0.0,0.0,95,0.00,,,0.00,Wunderground v.1.15,2013-03-13 11:00:00,
2013-03-13 04:10:00,43.5,42.2,30.14,NNW,337,0.0,0.0,95,0.00,,,0.00,Wunderground v.1.15,2013-03-13 11:10:00,
2013-03-13 04:15:00,43.5,42.2,30.14,NNW,337,0.0,0.0,95,0.00,,,0.00,Wunderground v.1.15,2013-03-13 11:15:00,
2013-03-13 04:25:00,43.6,42.3,30.14,NNW,337,0.0,0.0,95,0.00,,,0.00,Wunderground v.1.15,2013-03-13 11:25:00,
2013-03-13 04:35:00,43.4,42.1,30.13,NNW,337,0.0,0.0,95,0.00,,,0.00,Wunderground v.1.15,2013-03-13 11:35:00,
2013-03-13 04:45:00,43.2,41.9,30.14,NNW,337,0.0,0.0,95,0.00,,,0.00,Wunderground v.1.15,2013-03-13 11:45:00,
2013-03-13 04:55:00,42.9,41.6,30.14,NNW,337,0.0,0.0,95,0.00,,,0.00,Wunderground v.1.15,2013-03-13 11:55:00,
2013-03-13 05:00:00,42.9,41.6,30.14,NNW,337,0.0,0.0,95,0.00,,,0.00,Wunderground v.1.15,2013-03-13 12:00:00,
2013-03-13 05:10:00,42.9,41.6,30.14,NNW,337,0.0,0.0,95,0.00,,,0.00,Wunderground v.1.15,2013-03-13 12:10:00,
2013-03-13 05:19:00,42.9,41.6,30.14,NNW,337,0.0,0.0,95,0.00,,,0.00,Wunderground v.1.15,2013-03-13 12:19:00,
2013-03-13 05:25:00,42.8,41.5,30.14,NNW,337,0.0,0.0,95,0.00,,,0.00,Wunderground v.1.15,2013-03-13 12:25:00,
2013-03-13 05:35:00,42.5,41.2,30.14,NNW,337,0.0,0.0,95,0.00,,,0.00,Wunderground v.1.15,2013-03-13 12:35:00,
2013-03-13 05:45:00,42.3,41.0,30.14,NNW,337,0.0,0.0,95,0.00,,,0.00,Wunderground v.1.15,2013-03-13 12:45:00,
2013-03-13 05:55:00,42.1,40.8,30.14,NNW,337,0.0,0.0,95,0.00,,,0.00,Wunderground v.1.15,2013-03-13 12:55:00,
2013-03-13 06:00:00,41.9,40.6,30.14,NNW,337,0.0,0.0,95,0.00,,,0.00,Wunderground v.1.15,2013-03-13 13:00:00,
2013-03-13 06:05:00,41.8,40.5,30.14,NNW,337,0.0,0.0,95,0.00,,,0.00,Wunderground v.1.15,2013-03-13 13:05:00,
2013-03-13 06:14:00,41.9,40.6,30.14,NNW,337,0.0,0.0,95,0.00,,,0.00,Wunderground v.1.15,2013-03-13 13:14:00,
2013-03-13 06:20:00,41.9,40.6,30.14,NNW,337,0.0,0.0,95,0.00,,,0.00,Wunderground v.1.15,2013-03-13 13:20:00,
2013-03-13 06:30:00,41.8,40.5,30.14,NNW,337,0.0,0.0,95,0.00,,,0.00,Wunderground v.1.15,2013-03-13 13:30:00,
2013-03-13 06:35:00,41.8,40.5,30.14,NNW,337,0.0,0.0,95,0.00,,,0.00,Wunderground v.1.15,2013-03-13 13:35:00,
2013-03-13 06:45:00,41.8,40.5,30.14,NNW,337,0.0,0.0,95,0.00,,,0.00,Wunderground v.1.15,2013-03-13 13:45:00,
2013-03-13 06:55:00,41.9,40.6,30.14,NNW,337,0.0,0.0,95,0.00,,,0.00,Wunderground v.1.15,2013-03-13 13:55:00,
2013-03-13 07:00:00,41.9,40.6,30.14,NNW,337,0.0,0.0,95,0.00,,,0.00,Wunderground v.1.15,2013-03-13 14:00:00,
2013-03-13 07:05:00,42.0,40.7,30.14,NNW,337,0.0,0.0,95,0.00,,,0.00,Wunderground v.1.15,2013-03-13 14:05:00,
2013-03-13 07:15:00,41.8,40.7,30.15,NNW,337,0.0,0.0,96,0.00,,,0.00,Wunderground v.1.15,2013-03-13 14:15:00,
2013-03-13 07:25:00,41.9,40.8,30.15,NNW,337,0.0,0.0,96,0.00,,,0.00,Wunderground v.1.15,2013-03-13 14:25:00,
2013-03-13 07:35:00,41.8,40.7,30.16,NNW,337,0.0,0.0,96,0.00,,,0.00,Wunderground v.1.15,2013-03-13 14:35:00,
2013-03-13 07:44:00,42.1,41.0,30.16,NNW,337,0.0,0.0,96,0.00,,,0.00,Wunderground v.1.15,2013-03-13 14:44:00,
2013-03-13 07:50:00,42.2,41.1,30.16,NNW,337,0.0,0.0,96,0.00,,,0.00,Wunderground v.1.15,2013-03-13 14:50:00,
2013-03-13 08:00:00,42.7,41.6,30.16,NNW,337,0.0,0.0,96,0.00,,,0.00,Wunderground v.1.15,2013-03-13 15:00:00,
2013-03-13 08:05:00,42.8,41.7,30.16,NNW,337,0.0,0.0,96,0.00,,,0.00,Wunderground v.1.15,2013-03-13 15:05:00,
2013-03-13 08:15:00,43.2,42.1,30.16,NNW,337,0.0,0.0,96,0.00,,,0.00,Wunderground v.1.15,2013-03-13 15:15:00,
2013-03-13 08:25:00,43.7,42.6,30.16,NNW,337,0.0,0.0,96,0.00,,,0.00,Wunderground v.1.15,2013-03-13 15:25:00,
2013-03-13 08:35:00,44.7,43.6,30.16,NNW,337,0.0,0.0,96,0.00,,,0.00,Wunderground v.1.15,2013-03-13 15:35:00,
2013-03-13 08:45:00,45.8,44.7,30.16,NNW,337,0.0,0.0,96,0.00,,,0.00,Wunderground v.1.15,2013-03-13 15:45:00,
2013-03-13 08:54:00,47.3,46.2,30.16,ESE,103,0.0,0.0,96,0.00,,,0.00,Wunderground v.1.15,2013-03-13 15:54:00,
2013-03-13 09:00:00,48.4,47.3,30.16,ESE,109,0.0,0.0,96,0.00,,,0.00,Wunderground v.1.15,2013-03-13 16:00:00,
2013-03-13 09:10:00,49.8,48.7,30.16,SSE,161,0.0,1.0,96,0.00,,,0.00,Wunderground v.1.15,2013-03-13 16:10:00,
2013-03-13 09:20:00,50.0,49.2,30.16,SSE,158,1.0,1.0,97,0.00,,,0.00,Wunderground v.1.15,2013-03-13 16:20:00,
2013-03-13 09:30:00,50.6,49.8,30.16,East,81,1.0,1.0,97,0.00,,,0.00,Wunderground v.1.15,2013-03-13 16:30:00,
2013-03-13 09:40:00,51.2,50.1,30.16,ESE,103,0.0,1.0,96,0.00,,,0.00,Wunderground v.1.15,2013-03-13 16:40:00,
2013-03-13 09:49:00,51.8,50.7,30.15,SSE,147,0.0,0.0,96,0.00,,,0.00,Wunderground v.1.15,2013-03-13 16:49:00,
2013-03-13 09:55:00,52.2,51.4,30.15,South,169,0.0,1.0,97,0.00,,,0.00,Wunderground v.1.15,2013-03-13 16:55:00,
2013-03-13 10:00:00,52.8,52.0,30.15,SSE,153,1.0,1.0,97,0.00,,,0.00,Wunderground v.1.15,2013-03-13 17:00:00,
2013-03-13 10:10:00,54.0,52.9,30.15,ENE,73,1.0,1.0,96,0.00,,,0.00,Wunderground v.1.15,2013-03-13 17:10:00,
2013-03-13 10:20:00,56.3,53.4,30.15,North,349,0.0,0.0,90,0.00,,,0.00,Wunderground v.1.15,2013-03-13 17:20:00,
2013-03-13 10:29:00,58.6,53.5,30.15,North,5,0.0,0.0,83,0.00,,,0.00,Wunderground v.1.15,2013-03-13 17:29:00,
2013-03-13 10:35:00,59.6,54.1,30.15,NE,51,0.0,0.0,82,0.00,,,0.00,Wunderground v.1.15,2013-03-13 17:35:00,
2013-03-13 10:45:00,61.4,54.1,30.15,SE,132,0.0,1.0,77,0.00,,,0.00,Wunderground v.1.15,2013-03-13 17:45:00,
2013-03-13 10:55:00,63.7,54.1,30.15,North,355,0.0,0.0,71,0.00,,,0.00,Wunderground v.1.15,2013-03-13 17:55:00,
2013-03-13 11:00:00,64.8,54.0,30.15,NNE,12,0.0,0.0,68,0.00,,,0.00,Wunderground v.1.15,2013-03-13 18:00:00,
2013-03-13 11:10:00,66.0,53.9,30.14,ESE,103,0.0,3.0,65,0.00,,,0.00,Wunderground v.1.15,2013-03-13 18:10:00,
2013-03-13 11:20:00,66.9,53.9,30.14,East,93,1.0,1.0,63,0.00,,,0.00,Wunderground v.1.15,2013-03-13 18:20:00,
2013-03-13 11:30:00,67.0,53.1,30.14,NNE,28,0.0,0.0,61,0.00,,,0.00,Wunderground v.1.15,2013-03-13 18:30:00,
2013-03-13 11:40:00,67.7,53.8,30.14,SSW,213,0.0,0.0,61,0.00,,,0.00,Wunderground v.1.15,2013-03-13 18:40:00,
2013-03-13 11:50:00,68.9,54.4,30.14,NE,49,0.0,0.0,60,0.00,,,0.00,Wunderground v.1.15,2013-03-13 18:50:00,
2013-03-13 12:00:00,70.1,54.6,30.14,NNW,348,1.0,1.0,58,0.00,,,0.00,Wunderground v.1.15,2013-03-13 19:00:00,
2013-03-13 12:09:00,71.1,55.6,30.14,ENE,67,1.0,1.0,58,0.00,,,0.00,Wunderground v.1.15,2013-03-13 19:09:00,
2013-03-13 12:15:00,71.4,55.4,30.14,ENE,71,0.0,1.0,57,0.00,,,0.00,Wunderground v.1.15,2013-03-13 19:15:00,
2013-03-13 12:25:00,71.5,55.9,30.13,NNW,340,1.0,2.0,58,0.00,,,0.00,Wunderground v.1.15,2013-03-13 19:25:00,
2013-03-13 12:35:00,71.8,56.2,30.13,NW,308,2.0,5.0,58,0.00,,,0.00,Wunderground v.1.15,2013-03-13 19:35:00,
2013-03-13 12:45:00,71.6,56.0,30.13,North,360,2.0,3.0,58,0.00,,,0.00,Wunderground v.1.15,2013-03-13 19:45:00,
2013-03-13 12:55:00,72.2,56.1,30.12,NW,306,1.0,2.0,57,0.00,,,0.00,Wunderground v.1.15,2013-03-13 19:55:00,
2013-03-13 13:00:00,72.5,55.9,30.12,North,9,1.0,1.0,56,0.00,,,0.00,Wunderground v.1.15,2013-03-13 20:00:00,
2013-03-13 13:10:00,72.9,55.8,30.12,ENE,59,1.0,1.0,55,0.00,,,0.00,Wunderground v.1.15,2013-03-13 20:10:00,
2013-03-13 13:20:00,73.9,55.2,30.11,NNE,13,0.0,0.0,52,0.00,,,0.00,Wunderground v.1.15,2013-03-13 20:20:00,
2013-03-13 13:30:00,74.3,54.5,30.11,NNE,28,1.0,1.0,50,0.00,,,0.00,Wunderground v.1.15,2013-03-13 20:30:00,
2013-03-13 13:35:00,74.2,54.9,30.11,NW,326,1.0,2.0,51,0.00,,,0.00,Wunderground v.1.15,2013-03-13 20:35:00,
2013-03-13 13:45:00,74.8,54.4,30.10,ENE,57,1.0,1.0,49,0.00,,,0.00,Wunderground v.1.15,2013-03-13 20:45:00,
2013-03-13 13:55:00,74.7,53.7,30.10,WNW,302,1.0,1.0,48,0.00,,,0.00,Wunderground v.1.15,2013-03-13 20:55:00,
2013-03-13 14:00:00,75.1,53.5,30.09,NW,313,1.0,1.0,47,0.00,,,0.00,Wunderground v.1.15,2013-03-13 21:00:00,
2013-03-13 14:05:00,75.3,53.1,30.09,NNW,343,1.0,1.0,46,0.00,,,0.00,Wunderground v.1.15,2013-03-13 21:05:00,
2013-03-13 14:15:00,75.3,53.1,30.09,WNW,295,1.0,1.0,46,0.00,,,0.00,Wunderground v.1.15,2013-03-13 21:15:00,
2013-03-13 14:25:00,75.2,51.8,30.09,NNW,342,2.0,2.0,44,0.00,,,0.00,Wunderground v.1.15,2013-03-13 21:25:00,
2013-03-13 14:35:00,75.1,51.7,30.09,NNW,344,2.0,3.0,44,0.00,,,0.00,Wunderground v.1.15,2013-03-13 21:35:00,
2013-03-13 14:45:00,75.1,52.3,30.09,NW,307,3.0,4.0,45,0.00,,,0.00,Wunderground v.1.15,2013-03-13 21:45:00,
2013-03-13 14:55:00,75.7,52.8,30.08,WNW,286,2.0,4.0,45,0.00,,,0.00,Wunderground v.1.15,2013-03-13 21:55:00,
2013-03-13 15:00:00,76.2,51.4,30.08,North,360,2.0,3.0,42,0.00,,,0.00,Wunderground v.1.15,2013-03-13 22:00:00,
2013-03-13 15:10:00,77.0,50.8,30.09,West,281,2.0,2.0,40,0.00,,,0.00,Wunderground v.1.15,2013-03-13 22:10:00,
2013-03-13 15:20:00,77.1,51.6,30.08,NE,34,2.0,2.0,41,0.00,,,0.00,Wunderground v.1.15,2013-03-13 22:20:00,
2013-03-13 15:30:00,77.7,52.1,30.08,North,355,2.0,2.0,41,0.00,,,0.00,Wunderground v.1.15,2013-03-13 22:30:00,
2013-03-13 15:35:00,77.6,51.4,30.09,WNW,296,3.0,3.0,40,0.00,,,0.00,Wunderground v.1.15,2013-03-13 22:35:00,
2013-03-13 15:45:00,77.5,52.6,30.08,NW,311,3.0,4.0,42,0.00,,,0.00,Wunderground v.1.15,2013-03-13 22:45:00,
2013-03-13 15:55:00,78.0,53.0,30.08,North,355,2.0,4.0,42,0.00,,,0.00,Wunderground v.1.15,2013-03-13 22:55:00,
2013-03-13 16:00:00,78.1,52.5,30.08,NNW,346,1.0,1.0,41,0.00,,,0.00,Wunderground v.1.15,2013-03-13 23:00:00,
2013-03-13 16:09:00,78.2,51.9,30.08,North,360,2.0,2.0,40,0.00,,,0.00,Wunderground v.1.15,2013-03-13 23:09:00,
2013-03-13 16:15:00,78.3,53.3,30.08,NNW,332,2.0,4.0,42,0.00,,,0.00,Wunderground v.1.15,2013-03-13 23:15:00,
2013-03-13 16:25:00,79.1,53.4,30.08,NE,49,1.0,1.0,41,0.00,,,0.00,Wunderground v.1.15,2013-03-13 23:25:00,
2013-03-13 16:35:00,78.9,53.2,30.07,NW,316,2.0,2.0,41,0.00,,,0.00,Wunderground v.1.15,2013-03-13 23:35:00,
2013-03-13 16:40:00,78.3,52.7,30.07,North,9,1.0,2.0,41,0.00,,,0.00,Wunderground v.1.15,2013-03-13 23:40:00,
2013-03-13 21:05:00,58.6,52.8,30.08,NW,313,0.0,0.0,81,0.00,,,0.00,Wunderground v.1.15,2013-03-14 04:05:00,
2013-03-13 21:10:00,58.2,52.4,30.08,NW,313,0.0,0.0,81,0.00,,,0.00,Wunderground v.1.15,2013-03-14 04:10:00,
2013-03-13 21:20:00,57.6,52.1,30.08,NW,313,0.0,0.0,82,0.00,,,0.00,Wunderground v.1.15,2013-03-14 04:20:00,
2013-03-13 21:30:00,57.2,51.8,30.08,NW,313,0.0,0.0,82,0.00,,,0.00,Wunderground v.1.15,2013-03-14 04:30:00,
2013-03-13 21:35:00,56.9,51.8,30.08,NW,313,0.0,0.0,83,0.00,,,0.00,Wunderground v.1.15,2013-03-14 04:35:00,
2013-03-13 21:45:00,56.4,51.6,30.08,NW,313,0.0,0.0,84,0.00,,,0.00,Wunderground v.1.15,2013-03-14 04:45:00,
2013-03-13 21:55:00,56.0,51.2,30.08,NW,313,0.0,0.0,84,0.00,,,0.00,Wunderground v.1.15,2013-03-14 04:55:00,
2013-03-13 22:00:00,55.7,51.3,30.09,NW,313,0.0,0.0,85,0.00,,,0.00,Wunderground v.1.15,2013-03-14 05:00:00,
2013-03-13 22:10:00,55.2,51.1,30.09,NW,313,0.0,0.0,86,0.00,,,0.00,Wunderground v.1.15,2013-03-14 05:10:00,
2013-03-13 22:15:00,55.0,50.9,30.09,NW,313,0.0,0.0,86,0.00,,,0.00,Wunderground v.1.15,2013-03-14 05:15:00,
2013-03-13 22:25:00,54.5,50.4,30.09,NW,313,0.0,0.0,86,0.00,,,0.00,Wunderground v.1.15,2013-03-14 05:25:00,
2013-03-13 22:35:00,53.9,50.1,30.09,NW,313,0.0,0.0,87,0.00,,,0.00,Wunderground v.1.15,2013-03-14 05:35:00,
2013-03-13 22:40:00,53.7,50.2,30.09,NW,313,0.0,0.0,88,0.00,,,0.00,Wunderground v.1.15,2013-03-14 05:40:00,
2013-03-13 22:50:00,53.2,50.0,30.10,NW,313,0.0,0.0,89,0.00,,,0.00,Wunderground v.1.15,2013-03-14 05:50:00,
2013-03-13 23:00:00,52.9,49.7,30.10,NW,313,0.0,0.0,89,0.00,,,0.00,Wunderground v.1.15,2013-03-14 06:00:00,
2013-03-13 23:10:00,52.5,49.4,30.10,NW,313,0.0,0.0,89,0.00,,,0.00,Wunderground v.1.15,2013-03-14 06:10:00,
2013-03-13 23:20:00,52.2,49.4,30.10,NW,313,0.0,0.0,90,0.00,,,0.00,Wunderground v.1.15,2013-03-14 06:20:00,
2013-03-13 23:30:00,52.1,49.6,30.10,NW,313,0.0,0.0,91,0.00,,,0.00,Wunderground v.1.15,2013-03-14 06:30:00,
2013-03-13 23:35:00,52.0,49.5,30.10,NW,313,0.0,0.0,91,0.00,,,0.00,Wunderground v.1.15,2013-03-14 06:35:00,
2013-03-13 23:45:00,51.8,49.3,30.10,NW,313,0.0,0.0,91,0.00,,,0.00,Wunderground v.1.15,2013-03-14 06:45:00,
2013-03-13 23:55:00,51.5,49.0,30.10,NW,313,0.0,0.0,91,0.00,,,0.00,Wunderground v.1.15,2013-03-14 06:55:00,